Weather reports worldwide

Advertisment
München-Stadt, Germany (10865): temperature & dewpoint: 24.09.2020 22:00:00 - 30.09.2020 22:00:00 (CEST)München-Stadt, Germany (10865): temperature 5cm & temperature -5cm: 24.09.2020 22:00:00 - 30.09.2020 22:00:00 (CEST)München-Stadt, Germany (10865): temperature -20cm & temperature -100cm: 24.09.2020 22:00:00 - 30.09.2020 22:00:00 (CEST)München-Stadt, Germany (10865): wind speed & gusts: 24.09.2020 22:00:00 - 30.09.2020 22:00:00 (CEST)München-Stadt, Germany (10865): wind direction: 24.09.2020 22:00:00 - 30.09.2020 22:00:00 (CEST)München-Stadt, Germany (10865): reduced air pressure: 24.09.2020 22:00:00 - 30.09.2020 22:00:00 (CEST)München-Stadt, Germany (10865): visibility: 24.09.2020 22:00:00 - 30.09.2020 22:00:00 (CEST)München-Stadt, Germany (10865): sunshine duration: 24.09.2020 22:00:00 - 30.09.2020 22:00:00 (CEST)München-Stadt, Germany (10865): precipitation: 24.09.2020 22:00:00 - 30.09.2020 22:00:00 (CEST)
Date & Time tt [°C] td [°C] tt 5cm [°C] tt -5cm [°C] tt -20cm [°C] tt -100cm [°C] ff [km/h] ff [kn] fx [km/h] fx [kn] dd ppp [hPa] vv [km] sd [min] rr [mm]
30.09.2020 22:00:00 11,0 9,0 9,7 12,9 15,7 17,5 8 4 16 8 E 1013,8 28 0 0,0
30.09.2020 21:00:00 12,3 9,5 10,7 13,6 15,8 17,5 8 4 18 10 ESE 1013,8 26 0 0,0
30.09.2020 20:00:00 13,2 9,8 11,9 14,4 15,8 17,5 11 6 19 10 E 1013,7 28 0 0,0
30.09.2020 19:00:00 14,5 9,8 13,0 15,7 15,7 17,5 9 5 18 10 E 1013,4 43 44 0,0
30.09.2020 18:00:00 16,0 9,7 15,4 17,2 15,5 17,6 10 5 16 9 E 1013,3 51 57 0,0
30.09.2020 17:00:00 16,3 9,5 17,0 19,3 15,2 17,6 8 4 13 7 NE 1013,5 49 49 0,0
30.09.2020 16:00:00 17,5 9,4 19,8 20,2 14,9 17,6 7 4 19 10 E 1013,7 51 46 0,0
30.09.2020 15:00:00 15,8 9,4 18,6 20,0 14,5 17,6 11 6 20 11 NE 1014,7 46 43 0,0
30.09.2020 14:00:00 15,4 9,3 18,7 20,0 14,1 17,6 10 6 20 11 NNE 1015,4 36 45 0,0
30.09.2020 13:00:00 16,0 8,5 20,0 19,6 13,8 17,6 6 3 13 7 NE 1016,0 49 60 0,0
30.09.2020 12:00:00 14,7 7,3 17,3 17,9 13,7 17,6 5 3 9 5 SSW 1016,6 37 56 0,0
30.09.2020 11:00:00 13,1 7,7 14,3 14,4 13,6 17,7 4 2 9 5 NNW 1017,4 51 1 0,0
30.09.2020 10:00:00 12,2 8,2 13,1 12,8 13,6 17,7 5 3 9 5 SW 1018,0 43 0 0,0
30.09.2020 09:00:00 11,6 7,9 11,7 11,8 13,6 17,7 8 4 12 7 SW 1018,3 38 0 0,0
30.09.2020 08:00:00 11,2 7,9 11,1 11,6 13,6 17,7 5 3 9 5 S 1018,2 36 0 0,0
30.09.2020 07:00:00 10,9 8,1 10,8 11,6 13,6 17,7 4 2 10 5 WSW 1018,2 37 0 0,0
30.09.2020 06:00:00 10,9 8,2 10,9 11,7 13,6 17,7 5 3 8 4 WSW 1018,3 36 0 0,0
30.09.2020 05:00:00 10,9 8,3 10,9 11,7 13,6 17,7 5 3 8 4 WSW 1018,8 39 0 0,0
30.09.2020 04:00:00 10,9 8,3 10,8 11,7 13,7 17,8 3 2 8 4 W 1019,3 37 0 0,0
30.09.2020 03:00:00 10,9 8,1 10,9 11,7 13,7 17,8 4 2 10 5 W 1019,5 43 0 0,0
30.09.2020 02:00:00 11,0 8,2 10,9 11,7 13,7 17,8 5 3 12 7 WSW 1019,5 44 0 0,0
30.09.2020 01:00:00 11,0 8,1 10,9 11,6 13,7 17,8 3 2 12 7 W 1019,9 45 0 0,0
30.09.2020 00:00:00 11,0 8,0 10,9 11,6 13,7 17,8 5 3 12 7 WSW 1019,9 47 0 0,0
29.09.2020 23:00:00 11,1 8,0 10,9 11,6 13,8 17,8 8 4 17 9 W 1020,1 45 0 0,0
29.09.2020 22:00:00 11,3 8,0 11,1 11,7 13,8 17,8 9 5 19 10 W 1020,2 41 0 0,0
29.09.2020 21:00:00 11,4 8,2 11,1 11,9 13,8 17,9 12 6 18 10 W 1020,0 46 0 0,0
29.09.2020 20:00:00 11,4 8,2 11,2 12,0 13,8 17,9 8 4 17 9 W 1019,9 50 0 0,0
29.09.2020 19:00:00 11,5 8,0 11,4 12,3 13,7 17,9 10 6 29 16 W 1019,6 51 0 0,0
29.09.2020 18:00:00 11,7 7,9 11,9 12,6 13,6 17,9 12 7 34 18 W 1019,3 50 0 0,0
29.09.2020 17:00:00 11,9 8,0 11,8 12,9 13,6 17,9 18 10 32 17 W 1018,9 64 0 0,0
29.09.2020 16:00:00 12,0 8,4 11,8 13,1 13,5 18,0 13 7 29 16 W 1018,6 60 0 0,0
29.09.2020 15:00:00 12,1 8,7 12,1 13,1 13,4 18,0 16 9 35 19 W 1018,5 74 0 0,0
29.09.2020 14:00:00 11,6 8,8 11,4 13,1 13,2 18,0 19 10 35 19 W 1018,7 60 0 0,0
29.09.2020 13:00:00 11,1 9,2 11,3 12,9 13,1 18,0 17 9 30 16 W 1018,7 12 0 0,1
29.09.2020 12:00:00 10,8 9,5 11,6 12,6 13,1 18,0 6 4 13 7 WSW 1018,6 3,7 0 0,2
29.09.2020 11:00:00 10,0 8,6 10,3 12,0 13,0 18,0 8 4 16 9 SW 1018,6 3,7 0 0,2
29.09.2020 10:00:00 9,8 8,1 10,3 11,2 13,0 18,0 8 4 16 9 SSW 1018,3 12 0 0,1
29.09.2020 09:00:00 9,5 8,1 9,5 10,5 13,0 18,1 8 4 19 10 SSW 1017,9 7 0 0,0
29.09.2020 08:00:00 9,6 7,4 9,7 10,0 13,1 18,1 9 5 18 10 SW 1017,3 66 5 0,0
29.09.2020 07:00:00 9,3 6,7 8,9 9,7 13,1 18,1 8 4 14 8 WSW 1016,8 29 0 0,0
29.09.2020 06:00:00 9,0 6,2 8,7 9,6 13,2 18,1 9 5 14 7 SW 1016,7 65 0 0,0
29.09.2020 05:00:00 8,9 6,0 8,3 9,5 13,3 18,1 7 4 15 8 SW 1016,5 71 0 0,0
29.09.2020 04:00:00 8,9 6,2 8,4 9,6 13,4 18,2 8 4 13 7 SW 1016,4 68 0 0,0
29.09.2020 03:00:00 8,7 6,3 8,1 9,8 13,4 18,2 9 5 14 7 SSW 1016,3 68 0 0,0
29.09.2020 02:00:00 8,8 6,4 7,9 10,1 13,5 18,2 6 3 17 9 SSW 1016,3 63 0 0,0
29.09.2020 01:00:00 9,1 6,6 8,7 10,2 13,6 18,2 9 5 17 9 SW 1016,1 67 0 0,0
29.09.2020 00:00:00 9,2 7,1 8,7 10,4 13,6 18,2 6 3 11 6 S 1016,2 46 0 0,0
28.09.2020 23:00:00 9,2 7,3 8,7 10,6 13,7 18,3 7 4 9 5 S 1016,0 37 0 0,0
28.09.2020 22:00:00 9,6 7,5 9,1 10,9 13,7 18,3 4 2 8 4 SSE 1015,4 43 0 0,0
28.09.2020 21:00:00 9,6 7,3 9,3 11,1 13,7 18,3 5 3 10 5 SSE 1015,1 39 0 0,0
28.09.2020 20:00:00 9,7 7,2 9,5 11,3 13,7 18,3 7 4 14 7 S 1014,4 52 0 0,0
28.09.2020 19:00:00 9,9 6,9 9,9 11,7 13,6 18,3 6 4 14 8 SSE 1013,6 55 0 0,0
28.09.2020 18:00:00 10,2 6,4 10,1 12,2 13,5 18,3 7 4 13 7 SSE 1012,9 56 0 0,0
28.09.2020 17:00:00 10,6 6,2 10,6 12,7 13,4 18,4 5 3 9 5 ESE 1012,4 50 0 0,0
28.09.2020 16:00:00 10,7 6,9 10,7 13,0 13,3 18,4 6 3 9 5 E 1012,2 51 0 0,0
28.09.2020 15:00:00 10,1 6,5 10,2 12,6 13,2 18,4 4 2 6 3 ENE 1012,1 31 0 0,1
28.09.2020 14:00:00 9,4 6,9 9,7 12,0 13,1 18,4 2 1 8 4 N 1012,2 26 0 0,0
28.09.2020 13:00:00 8,6 6,1 8,8 12,0 13,0 18,4 0 0 5 3 N 1012,2 17 0 0,2
28.09.2020 12:00:00 8,4 5,8 9,1 11,8 12,9 18,5 2 1 12 6 NNE 1012,2 17 0 0,1
28.09.2020 11:00:00 7,6 5,2 8,2 10,8 12,9 18,5 6 4 11 6 WNW 1011,8 43 0 0,0
28.09.2020 10:00:00 6,6 4,6 7,2 9,7 13,0 18,5 6 4 14 8 WNW 1011,4 35 0 0,1
28.09.2020 09:00:00 6,5 4,3 7,0 9,0 13,1 18,5 7 4 15 8 W 1011,0 31 0 0,0
28.09.2020 08:00:00 5,8 4,0 5,6 8,2 13,2 18,5 6 3 12 7 W 1010,5 42 0 0,0
28.09.2020 07:00:00 5,4 3,8 5,2 8,3 13,3 18,6 7 4 16 9 W 1010,0 38 0 0,0
28.09.2020 06:00:00 5,1 3,5 4,8 8,2 13,5 18,6 10 6 16 9 WNW 1009,4 48 0 0,0
28.09.2020 05:00:00 5,3 3,7 4,8 8,2 13,7 18,6 6 4 10 6 W 1009,8 56 0 0,0
28.09.2020 04:00:00 5,3 3,9 4,3 8,2 13,9 18,6 5 3 9 5 SW 1010,1 63 0 0,0
28.09.2020 03:00:00 5,2 4,1 4,2 8,4 14,0 18,7 7 4 13 7 WNW 1009,5 56 0 0,0
28.09.2020 02:00:00 5,0 3,7 4,2 8,7 14,2 18,7 4 2 6 3 NE 1009,6 67 0 0,0
28.09.2020 01:00:00 5,8 4,5 4,6 9,1 14,4 18,7 5 3 9 5 ENE 1009,2 75 0 0,0
28.09.2020 00:00:00 6,4 4,7 4,9 9,6 14,6 18,7 4 2 10 5 N 1009,2 63 0 0,0
27.09.2020 23:00:00 7,0 5,0 5,7 10,1 14,7 18,8 6 3 11 6 N 1008,6 75 0 0,0
27.09.2020 22:00:00 8,1 5,4 6,6 10,6 14,8 18,8 6 3 13 7 ENE 1008,3 61 0 0,0
27.09.2020 21:00:00 9,6 5,6 8,2 11,3 14,9 18,8 8 5 16 9 NE 1007,6 71 0 0,0
27.09.2020 20:00:00 10,7 5,7 9,1 12,0 15,0 18,8 9 5 14 8 ENE 1006,9 75 3 0,0
27.09.2020 19:00:00 12,8 3,5 10,9 13,0 14,9 18,9 10 5 25 14 E 1005,8 74 56 0,0
27.09.2020 18:00:00 14,4 3,5 13,4 14,4 14,6 18,9 13 7 25 13 E 1004,8 74 60 0,0
27.09.2020 17:00:00 15,1 2,8 14,7 17,4 14,3 18,9 12 7 26 14 ENE 1004,4 75 59 0,0
27.09.2020 16:00:00 15,0 2,0 17,5 18,8 13,8 18,9 11 6 24 13 E 1004,4 71 60 0,0
27.09.2020 15:00:00 14,6 1,9 19,5 19,2 13,4 19,0 13 7 24 13 E 1004,2 75 60 0,0
27.09.2020 14:00:00 15,1 2,5 18,0 18,7 13,0 19,0 8 5 20 11 E 1004,4 49 56 0,0
27.09.2020 13:00:00 13,8 2,7 14,8 17,3 12,7 19,0 9 5 18 10 ESE 1004,8 60 51 0,0
27.09.2020 12:00:00 12,9 1,8 16,3 15,3 12,5 19,1 8 5 19 11 W 1004,9 57 60 0,0
27.09.2020 11:00:00 12,1 1,8 15,0 12,0 12,5 19,1 10 5 26 14 W 1004,7 74 60 0,0
27.09.2020 10:00:00 10,1 3,1 8,2 7,8 12,6 19,1 10 6 16 9 SE 1004,5 75 60 0,0
27.09.2020 09:00:00 8,8 2,4 6,8 7,5 12,7 19,1 8 5 20 11 WSW 1003,8 75 58 0,0
27.09.2020 08:00:00 6,9 2,4 6,2 7,2 12,8 19,1 10 5 20 11 SW 1004,1 75 39 0,0
27.09.2020 07:00:00 6,3 2,4 5,5 7,2 12,9 19,2 8 4 23 13 SW 1004,0 75 0 0,0
27.09.2020 06:00:00 6,6 2,2 5,2 7,6 13,0 19,2 18 10 35 19 W 1003,9 74 0 0,0
27.09.2020 05:00:00 7,3 2,5 7,0 7,8 13,1 19,2 19 10 35 19 WSW 1003,9 75 0 0,0
27.09.2020 04:00:00 6,9 2,5 6,0 7,6 13,2 19,2 19 11 46 25 WSW 1003,6 75 0 0,0
27.09.2020 03:00:00 6,6 2,6 5,8 7,7 13,3 19,3 21 11 45 25 WSW 1003,2 75 0 0,0
27.09.2020 02:00:00 6,6 3,0 5,7 8,1 13,4 19,3 22 12 49 26 WSW 1003,2 52 0 0,0
27.09.2020 01:00:00 7,0 2,6 6,8 8,3 13,5 19,3 24 13 49 26 WSW 1003,2 75 0 0,0
27.09.2020 00:00:00 6,9 2,6 6,8 8,4 13,6 19,3 26 14 46 25 WSW 1003,3 75 0 0,0
26.09.2020 23:00:00 6,9 2,8 6,7 8,4 13,7 19,4 21 11 45 25 WSW 1002,8 72 0 0,0
26.09.2020 22:00:00 6,6 2,7 6,2 8,5 13,8 19,4 22 12 46 25 WSW 1002,5 60 0 0,0
26.09.2020 21:00:00 6,4 2,9 6,0 8,8 13,9 19,4 23 12 43 23 WSW 1002,5 75 0 0,0
26.09.2020 20:00:00 6,5 3,1 6,1 9,1 14,0 19,4 26 14 45 25 WSW 1002,4 62 0 0,0
26.09.2020 19:00:00 6,9 4,0 6,4 9,4 14,1 19,5 20 11 47 25 WSW 1002,1 51 0 0,1
26.09.2020 18:00:00 7,2 3,5 6,6 9,8 14,1 19,5 25 14 56 30 WSW 1001,7 43 0 0,0
26.09.2020 17:00:00 7,2 3,5 6,6 10,3 14,1 19,5 32 18 61 33 W 1001,4 35 0 0,1
26.09.2020 16:00:00 6,9 4,2 6,7 10,5 14,1 19,5 22 12 59 32 WSW 1001,4 12 0 0,2
26.09.2020 15:00:00 6,8 3,9 6,7 10,3 14,2 19,5 25 14 56 30 W 1001,3 16 0 0,4
26.09.2020 14:00:00 7,3 3,7 6,9 10,6 14,2 19,6 30 16 58 31 W 1001,3 35 0 0,1
26.09.2020 13:00:00 6,5 4,2 6,7 10,4 14,2 19,6 26 14 59 32 W 1001,8 11 0 0,4
26.09.2020 12:00:00 6,6 4,5 6,7 10,4 14,3 19,6 29 16 48 26 W 1001,7 10 0 0,8
26.09.2020 11:00:00 6,9 4,0 6,6 10,1 14,3 19,6 24 13 49 27 W 1001,5 8 0 0,2
26.09.2020 10:00:00 7,5 4,0 7,0 9,9 14,4 19,6 22 12 41 22 W 1001,0 68 0 0,0
26.09.2020 09:00:00 6,9 4,8 6,9 9,8 14,5 19,7 18 10 35 19 W 1000,8 61 0 0,4
26.09.2020 08:00:00 6,8 4,8 6,5 9,6 14,6 19,7 19 11 35 19 W 1001,0 20 0 0,7
26.09.2020 07:00:00 6,8 5,1 6,6 9,6 14,7 19,7 17 9 37 20 W 1001,2 10 0 0,4
26.09.2020 06:00:00 7,1 4,9 6,7 9,7 14,8 19,7 20 11 34 18 W 1001,4 45 0 0,0
26.09.2020 05:00:00 7,1 5,1 6,7 9,8 14,9 19,7 16 9 36 20 W 1001,0 62 0 0,1
26.09.2020 04:00:00 7,4 5,1 7,0 9,9 15,0 19,7 17 9 32 17 W 1001,3 13 0 0,1
26.09.2020 03:00:00 7,4 5,1 6,9 9,9 15,1 19,7 17 9 33 18 W 1001,1 7 0 0,0
26.09.2020 02:00:00 7,3 5,1 7,0 9,9 15,2 19,7 12 6 25 14 W 1001,5 60 0 0,0
26.09.2020 01:00:00 7,2 5,2 6,8 9,9 15,4 19,8 17 9 32 17 W 1001,4 75 0 0,0
26.09.2020 00:00:00 6,9 5,2 6,6 10,0 15,5 19,8 14 7 23 12 WSW 1001,8 67 0 0,0
25.09.2020 23:00:00 6,7 4,7 6,4 10,0 15,7 19,8 10 6 18 10 SW 1002,2 75 0 0,1
25.09.2020 22:00:00 6,2 4,5 6,1 9,9 15,8 19,8 11 6 22 12 SW 1002,4 44 0 0,0
25.09.2020 21:00:00 5,8 4,2 5,7 10,0 16,0 19,8 13 7 24 13 SSW 1002,7 46 0 0,2
25.09.2020 20:00:00 5,7 4,0 5,5 10,1 16,2 19,8 15 8 26 14 SSW 1003,4 54 0 0,7
25.09.2020 19:00:00 5,6 3,9 5,6 10,6 16,4 19,9 13 7 27 14 SSW 1003,4 23 0 2,0
25.09.2020 18:00:00 6,4 4,8 6,3 11,2 16,6 19,9 11 6 34 18 WSW 1003,5 11 0 2,6
25.09.2020 17:00:00 7,2 4,8 6,9 11,9 16,8 19,9 15 8 27 15 WSW 1003,0 29 0 1,0
25.09.2020 16:00:00 7,3 5,1 7,3 12,3 16,9 19,9 19 10 43 23 WSW 1003,4 12 0 2,1
25.09.2020 15:00:00 8,6 6,9 9,0 13,2 17,0 19,9 15 8 26 14 WSW 1002,8 11 0 1,3
25.09.2020 14:00:00 9,2 7,2 9,4 13,6 17,1 19,9 11 6 32 18 W 1002,2 26 0 0,8
25.09.2020 13:00:00 9,2 7,6 9,4 13,6 17,2 19,9 17 9 31 17 W 1002,8 21 0 1,3
25.09.2020 12:00:00 9,6 8,1 9,9 13,9 17,4 19,9 11 6 24 13 W 1003,3 39 0 0,8
25.09.2020 11:00:00 9,2 7,9 9,6 13,2 17,6 20,0 12 6 35 19 W 1003,5 15 0 3,3
25.09.2020 10:00:00 9,5 8,4 9,6 13,3 17,8 20,0 15 8 40 21 WNW 1003,2 15 0 7,2
25.09.2020 09:00:00 12,0 10,7 11,8 14,4 18,1 20,0 13 7 24 13 SW 1000,8 11 0 2,3
25.09.2020 08:00:00 12,7 10,5 12,1 14,7 18,2 20,0 11 6 22 12 SSW 1000,3 25 0 0,5
25.09.2020 07:00:00 12,8 10,9 12,2 14,8 18,3 20,0 10 5 17 9 SSW 1000,7 60 0 0,2
25.09.2020 06:00:00 13,0 11,4 12,6 14,9 18,4 20,0 9 5 23 12 SW 1001,2 39 0 0,1
25.09.2020 05:00:00 12,9 11,4 12,5 15,1 18,6 20,0 12 7 24 13 SW 1001,8 35 0 0,7
25.09.2020 04:00:00 13,1 11,7 12,9 15,3 18,8 20,0 12 6 22 12 WSW 1002,3 20 0 2,2
25.09.2020 03:00:00 12,8 11,5 12,6 15,6 18,9 20,0 11 6 32 18 W 1003,4 15 0 2,4
25.09.2020 02:00:00 13,7 12,4 13,6 16,0 19,0 20,0 10 6 21 11 WSW 1003,4 10 0 2,1
25.09.2020 01:00:00 13,6 12,3 13,5 16,2 19,2 20,0 8 4 29 16 W 1003,7 18 0 1,7
25.09.2020 00:00:00 14,9 10,7 14,8 16,6 19,3 20,0 23 12 50 27 WNW 1003,8 75 0 0,0
24.09.2020 23:00:00 16,8 12,6 16,3 17,1 19,4 20,1 8 4 18 10 SE 1001,7 - 0 0,0
24.09.2020 22:00:00 16,9 12,7 16,4 17,3 19,5 20,1 9 5 19 11 E 1002,2 58 0 0,0

tt = temperature
td = dewpoint
tt 5cm = temperature 5cm
tt -5cm = temperature -5cm
tt -20cm = temperature -20cm
tt -100cm = temperature -100cm
ff = wind speed
fx = gusts
dd = wind direction
ppp = reduced air pressure
vv = visibility
sd = sunshine duration
rr = precipitation

Next stations